[[{"header":{"parameterUnit":"m.s-1","parameterCategory":1,"la1":30.2991,"la2":30.254,"lo1":-89.0895,"lo2":-89.0444,"dy":0.0017,"dx":0.0017,"nx":28,"ny":28,"refTime":"2025-07-26T21:00:00:Z","depth":0,"parameterNumber":2,"parameterNumberName":"U-component_of_WINDS"},"data":[0,0,0,0,0,0,0,0,0,0,0,0,0,0,0,0,0,0,0,0,0,0,0,0,0,0,0,0,0,0,0,0,0,0,0,0,0,0,0,0,0,0,0,0,0,0,0,0,0,0,0,0,0,0,0,0,0,0,0.93,0.9301,0,0.9364,0.9365,0.9366,0.9366,0.9365,0.9364,0.9363,0.9432,0.9434,0.9437,0,0,0,0,0,0,0,0,0,0,0,0,0,0.9183,0.9185,0.93,0.9301,0.9302,0.9364,0.9365,0.9366,0.9366,0.9365,0.9364,0.9363,0.9431,0.9434,0.9437,0,0,0,0,0,0,0,0,0,0,0,0,0,0.9239,0.9186,0.93,0.9309,0.9311,0.9364,0.9365,0.9366,0.9366,0.9365,0.9364,0.9363,0.943,0.9434,0.9437,0.9486,0,0,0.9449,0.9451,0,0,0,0,0,0,0,0,0.9236,0.9243,0.9307,0.9309,0.9311,0.9356,0.9349,0.9406,0.9367,0.9345,0.9363,0.9362,0.9408,0.9413,0.9428,0.9489,0.9492,0.945,0.9452,0.9454,0.9455,0,0,0,0,0,0,0,0.9232,0.9241,0.9326,0.9308,0.931,0.9312,0.9318,0.936,0.9383,0.9347,0.9347,0.9355,0.9408,0.9424,0.943,0.9493,0.945,0.9453,0.9455,0.9457,0.9601,0.9603,0,0,0,0,0,0,0.9226,0.9237,0.9324,0.9328,0.9269,0.9315,0.9322,0.9343,0.9382,0.9387,0.9356,0.9354,0.9418,0.9425,0.9432,0.9494,0.9454,0.9457,0.946,0.96,0.9602,0.9603,0,0,0,0,0,0,0.9223,0.9233,0.9321,0.9283,0.9294,0.9318,0.9341,0.9344,0.936,0.9389,0.9393,0.9367,0.9418,0.9427,0.9473,0.9496,0.9459,0.9463,0.9598,0.96,0.9602,0.9617,0,0,0,0,0,0,0.922,0.9232,0.925,0.9283,0.9296,0.936,0.9342,0.9347,0.9367,0.9366,0.9401,0.9406,0.9417,0.9467,0.9477,0.9501,0.9466,0.9596,0.9599,0.9602,0.9614,0.9619,0.9623,0,0,0,0,0,0.9216,0.9252,0.9251,0.9261,0.9318,0.9361,0.9369,0.9381,0.9368,0.9388,0.9406,0.9405,0.9492,0.9472,0.9483,0.9508,0.9595,0.9598,0.9601,0.9612,0.9618,0.9623,0,0,0,0,0,0,0.9221,0.9256,0.9256,0.9303,0.9329,0.9361,0.9385,0.9386,0.9417,0.9415,0.9429,0.9437,0.9484,0.9501,0.9478,0.9559,0.9542,0.9548,0.9547,0.9553,0.9557,0.9553,0.9469,0,0,0,0,0,0.9228,0.9259,0.9288,0.9327,0.934,0.936,0.9379,0.9386,0.9414,0.9426,0.9447,0.9476,0.951,0.9532,0.9564,0.9617,0.9626,0.964,0.9644,0.9648,0.9653,0.9684,0.9692,0.9614,0.9614,0.9614,0,0,0.9242,0.9265,0.9284,0.9329,0.935,0.9383,0.937,0.9405,0.943,0.9431,0.9477,0.9494,0.9527,0.9577,0.96,0.9592,0.9676,0.9652,0.9655,0.9658,0.9689,0.9696,0.9703,0.9617,0.9616,0.9616,0,0,0.9286,0.9305,0.9341,0.9362,0.9394,0.9408,0.9417,0.9449,0.946,0.9506,0.9509,0.954,0.9597,0.9621,0.9641,0.9696,0.9696,0.9706,0.973,0.976,0.9767,0.9772,0.9794,0.9801,0.9711,0.9711,0.9711,0,0.93,0.9349,0.9359,0.9395,0.9416,0.9418,0.9456,0.9477,0.9518,0.9533,0.9524,0.9598,0.9619,0.9677,0.969,0.9705,0.9718,0.9702,0.9765,0.977,0.9776,0.9797,0.9805,0.9712,0.9712,0.9712,0.9711,0,0.9366,0.94,0.9425,0.9465,0.9489,0.9525,0.9543,0.9566,0.9572,0.9587,0.9635,0.9662,0.9701,0.9715,0.972,0.9774,0.9768,0.9761,0.9745,0.9784,0.9804,0.9812,0.9713,0.9713,0.9713,0.9712,0,0,0.9414,0.946,0.947,0.9489,0.9525,0.9553,0.959,0.9628,0.9649,0.9678,0.9711,0.9761,0.9756,0.9778,0.9786,0.9813,0.9858,0.9803,0.9804,0.9814,0.9921,0.9927,0.9936,0.9858,0.9859,0.9861,0.9919,0,0.9463,0.9529,0.9541,0.9599,0.9633,0.9636,0.9669,0.9696,0.9712,0.9744,0.9761,0.9797,0.9786,0.98,0.9826,0.9846,0.988,0.9842,0.9891,0.9893,0.9885,0.9946,0.9952,1.0006,0.9927,0.9928,0.9929,0,0.9529,0.9559,0.9621,0.9655,0.967,0.9699,0.9736,0.9766,0.9797,0.9807,0.9833,0.9839,0.988,0.9861,0.9919,0.9894,0.9914,0.9928,0.993,0.9937,0.9914,0.9956,1.0023,1.0032,0.9941,0.994,0.9939,0,0.9561,0.9617,0.9662,0.9678,0.9719,0.974,0.9758,0.9788,0.9811,0.9843,0.9859,0.9896,0.9917,0.9946,0.9963,0.9947,1.0021,1.0002,1.0032,1.0032,1.0049,1.0048,1.0123,1.0059,1.0059,1.0059,1.0059,0,0.9615,0.9653,0.9678,0.9706,0.9749,0.9763,0.9807,0.9824,0.9852,0.9884,0.9889,0.992,0.9939,0.9974,0.9987,1.0035,1.0044,1.0054,1.0058,1.0055,1.0054,1.007,1.0067,1.0061,1.0061,1.006,1.006,0,0.9659,0.9676,0.9726,0.976,0.977,0.9801,0.9831,0.9859,0.9875,0.9917,0.9927,0.9953,0.9993,1.0013,1.0063,1.0072,1.0127,1.0127,1.0117,1.0118,1.0148,1.0146,1.0237,1.0251,1.0176,1.0177,1.0178,0,0.9693,0.9723,0.976,0.9782,0.9801,0.9836,0.986,0.9875,0.99,0.9939,0.9963,1.0004,1.0038,1.0103,1.0127,1.0166,1.0168,1.0198,1.0174,1.0172,1.0172,1.017,1.0175,1.0202,1.0203,1.0204,1.0204,0,0.9753,0.9761,0.9794,0.9831,0.9859,0.9889,0.9918,0.9936,0.9957,0.9985,1.0026,1.0052,1.0104,1.0146,1.0187,1.0207,1.021,1.0211,1.0221,1.0219,1.0212,1.0219,1.013,1.0209,1.0209,1.0208,1.0208,1.0208,0.9794,0.9822,0.9853,0.9891,0.9915,0.9943,0.9972,0.9991,1.0026,1.0069,1.0077,1.0122,1.0155,1.021,1.0232,1.0269,1.0262,1.0275,1.0279,1.0282,1.0285,1.0205,1.0276,1.0276,1.0276,1.0276,1.0276,0,0.9857,0.9877,0.9911,0.9953,0.9983,0.9982,1.0015,1.0041,1.0081,1.0111,1.0144,1.0193,1.0234,1.0261,1.0303,1.0327,1.033,1.0338,1.0337,1.0342,1.0287,1.0276,1.0335,1.0335,1.0335,1.0335,1.0335,1.0335,0.9892,0.994,0.9951,1.0011,1.0032,1.0076,1.0095,1.0122,1.0146,1.0201,1.0235,1.0252,1.0282,1.0326,1.0364,1.0371,1.0388,1.0396,1.0404,1.0352,1.0346,1.034,1.033,1.0399,1.0399,1.0456,1.0456,1.0457]},{"header":{"parameterUnit":"m.s-1","parameterCategory":1,"la1":30.2991,"la2":30.254,"lo1":-89.0895,"lo2":-89.0444,"dy":0.0017,"dx":0.0017,"nx":28,"ny":28,"refTime":"2025-07-26T21:00:00:Z","depth":0,"parameterNumber":3,"parameterNumberName":"V-component_of_WINDS"},"data":[0,0,0,0,0,0,0,0,0,0,0,0,0,0,0,0,0,0,0,0,0,0,0,0,0,0,0,0,0,0,0,0,0,0,0,0,0,0,0,0,0,0,0,0,0,0,0,0,0,0,0,0,0,0,0,0,0,0,-0.625,-0.625,0,-0.6229,-0.6229,-0.6229,-0.6274,-0.6275,-0.6277,-0.6278,-0.6253,-0.6251,-0.6249,0,0,0,0,0,0,0,0,0,0,0,0,0,-0.6328,-0.6326,-0.625,-0.625,-0.625,-0.6229,-0.6229,-0.6229,-0.6273,-0.6275,-0.6277,-0.6279,-0.6253,-0.6251,-0.6248,0,0,0,0,0,0,0,0,0,0,0,0,0,-0.6299,-0.6326,-0.625,-0.627,-0.6271,-0.6229,-0.6229,-0.6228,-0.6273,-0.6275,-0.6278,-0.628,-0.6254,-0.6251,-0.6248,-0.6185,0,0,-0.6239,-0.6237,0,0,0,0,0,0,0,0,-0.6301,-0.6296,-0.6267,-0.6268,-0.627,-0.6256,-0.6247,-0.6214,-0.6273,-0.6272,-0.6278,-0.6281,-0.6252,-0.6249,-0.624,-0.6184,-0.6182,-0.6238,-0.6236,-0.6235,-0.6234,0,0,0,0,0,0,0,-0.6303,-0.6297,-0.6242,-0.6267,-0.6268,-0.6279,-0.6277,-0.6241,-0.625,-0.6272,-0.6276,-0.6273,-0.6253,-0.6243,-0.624,-0.6182,-0.6238,-0.6236,-0.6234,-0.6233,-0.6076,-0.6074,0,0,0,0,0,0,-0.6302,-0.6299,-0.6242,-0.6241,-0.6291,-0.6276,-0.6274,-0.6258,-0.625,-0.6251,-0.6271,-0.6275,-0.6247,-0.6243,-0.6239,-0.6168,-0.6235,-0.6232,-0.6231,-0.6079,-0.6076,-0.6073,0,0,0,0,0,0,-0.6304,-0.6297,-0.6243,-0.6271,-0.6265,-0.6272,-0.6254,-0.6257,-0.6247,-0.6249,-0.6251,-0.6259,-0.6249,-0.6243,-0.6199,-0.6167,-0.6231,-0.6228,-0.6081,-0.6078,-0.6075,-0.6022,0,0,0,0,0,0,-0.6306,-0.6297,-0.6274,-0.627,-0.6263,-0.6204,-0.6252,-0.6255,-0.6242,-0.6247,-0.6239,-0.6239,-0.625,-0.6203,-0.6196,-0.6164,-0.6226,-0.6084,-0.608,-0.6076,-0.6026,-0.6017,-0.6009,0,0,0,0,0,-0.6309,-0.6258,-0.6272,-0.6265,-0.6234,-0.6202,-0.6198,-0.6213,-0.6239,-0.6216,-0.6218,-0.624,-0.6171,-0.6198,-0.619,-0.6157,-0.6086,-0.6081,-0.6076,-0.603,-0.6019,-0.6009,0,0,0,0,0,0,-0.6255,-0.6258,-0.6273,-0.622,-0.6211,-0.621,-0.618,-0.6199,-0.6181,-0.6186,-0.6204,-0.6201,-0.6154,-0.6151,-0.6181,-0.6097,-0.6133,-0.6126,-0.6102,-0.6091,-0.6082,-0.6085,-0.6223,0,0,0,0,0,-0.6238,-0.6213,-0.6215,-0.6168,-0.6163,-0.6172,-0.6159,-0.6171,-0.6162,-0.6157,-0.6156,-0.6145,-0.6122,-0.6105,-0.6084,-0.6026,-0.6026,-0.5999,-0.599,-0.5983,-0.5977,-0.595,-0.5939,-0.6056,-0.6056,-0.6056,0,0,-0.62,-0.6199,-0.6181,-0.6158,-0.6152,-0.6126,-0.6168,-0.6138,-0.6119,-0.6152,-0.6112,-0.611,-0.6099,-0.6049,-0.6026,-0.6044,-0.5945,-0.5976,-0.5971,-0.5969,-0.5943,-0.5932,-0.5922,-0.6053,-0.6053,-0.6054,0,0,-0.612,-0.6115,-0.6077,-0.6071,-0.6063,-0.607,-0.606,-0.6057,-0.6058,-0.6018,-0.6044,-0.602,-0.5978,-0.5971,-0.5961,-0.5881,-0.5901,-0.5873,-0.5827,-0.58,-0.5791,-0.5783,-0.5757,-0.5747,-0.5867,-0.5866,-0.5866,0,-0.6074,-0.6037,-0.6054,-0.6024,-0.6013,-0.6044,-0.6007,-0.5999,-0.5983,-0.5975,-0.5996,-0.5947,-0.5941,-0.5891,-0.5872,-0.5862,-0.5853,-0.5875,-0.5791,-0.5783,-0.5776,-0.5751,-0.5741,-0.5863,-0.5864,-0.5864,-0.5864,0,-0.5983,-0.5956,-0.5926,-0.5913,-0.5899,-0.5864,-0.5877,-0.5861,-0.5875,-0.5879,-0.5839,-0.5834,-0.5814,-0.5802,-0.5814,-0.5754,-0.5766,-0.5788,-0.5825,-0.5761,-0.5739,-0.5729,-0.5859,-0.586,-0.5861,-0.5862,0,0,-0.5867,-0.5867,-0.5856,-0.5852,-0.5846,-0.5825,-0.5793,-0.5774,-0.5761,-0.5749,-0.5724,-0.5689,-0.5711,-0.57,-0.5711,-0.5687,-0.5627,-0.5713,-0.5713,-0.57,-0.5565,-0.555,-0.5539,-0.564,-0.5639,-0.5637,-0.5567,0,-0.579,-0.5736,-0.5753,-0.5698,-0.5676,-0.5706,-0.5678,-0.5671,-0.5675,-0.5656,-0.5659,-0.5636,-0.5665,-0.5659,-0.5636,-0.5639,-0.5601,-0.5644,-0.5618,-0.5617,-0.5622,-0.5526,-0.551,-0.5443,-0.5558,-0.5556,-0.5555,0,-0.5693,-0.5681,-0.5625,-0.5626,-0.5617,-0.5591,-0.5578,-0.5559,-0.5552,-0.5557,-0.5546,-0.5563,-0.5532,-0.5568,-0.5526,-0.5555,-0.5545,-0.5545,-0.5543,-0.5543,-0.5583,-0.5526,-0.5422,-0.5413,-0.5541,-0.5542,-0.5543,0,-0.5619,-0.5587,-0.5551,-0.5546,-0.5545,-0.5528,-0.5526,-0.5522,-0.5511,-0.5498,-0.5492,-0.5474,-0.5465,-0.5452,-0.5464,-0.5489,-0.5421,-0.5457,-0.5425,-0.5425,-0.5411,-0.5412,-0.5307,-0.54,-0.54,-0.54,-0.5401,0,-0.5532,-0.5497,-0.5518,-0.5496,-0.5459,-0.5477,-0.5439,-0.5441,-0.5438,-0.5417,-0.544,-0.542,-0.5436,-0.5417,-0.5426,-0.5392,-0.5386,-0.539,-0.5393,-0.5389,-0.5389,-0.5384,-0.539,-0.5398,-0.5398,-0.5399,-0.5399,0,-0.5443,-0.5455,-0.5418,-0.5422,-0.5422,-0.5395,-0.5398,-0.5377,-0.5384,-0.5357,-0.5351,-0.5361,-0.534,-0.5351,-0.5328,-0.5335,-0.5291,-0.5299,-0.5294,-0.5297,-0.5265,-0.5269,-0.5155,-0.5142,-0.5241,-0.524,-0.5239,0,-0.5388,-0.5363,-0.5365,-0.5354,-0.5352,-0.5332,-0.5322,-0.5339,-0.5328,-0.532,-0.5301,-0.5283,-0.5269,-0.5235,-0.5239,-0.5223,-0.5232,-0.5193,-0.523,-0.5228,-0.5235,-0.5238,-0.5236,-0.5187,-0.5186,-0.5185,-0.5184,0,-0.5291,-0.5299,-0.5285,-0.5273,-0.5261,-0.5251,-0.5244,-0.5233,-0.525,-0.5236,-0.5217,-0.5206,-0.5185,-0.5167,-0.5154,-0.5152,-0.5171,-0.5172,-0.5165,-0.5161,-0.5161,-0.5164,-0.5277,-0.5175,-0.5176,-0.5177,-0.5177,-0.5177,-0.522,-0.52,-0.5199,-0.5183,-0.518,-0.5173,-0.5156,-0.5161,-0.5145,-0.5131,-0.5141,-0.5119,-0.5115,-0.5099,-0.5095,-0.5077,-0.5093,-0.5081,-0.5078,-0.5076,-0.5073,-0.5162,-0.5074,-0.5075,-0.5075,-0.5075,-0.5075,0,-0.5126,-0.5128,-0.5113,-0.5104,-0.5091,-0.5111,-0.5105,-0.5093,-0.5073,-0.5069,-0.5056,-0.5034,-0.5018,-0.5022,-0.5007,-0.4992,-0.5001,-0.4988,-0.4991,-0.4991,-0.5058,-0.5068,-0.4982,-0.4982,-0.4982,-0.4982,-0.4982,-0.4982,-0.5076,-0.5045,-0.5054,-0.5022,-0.5023,-0.5003,-0.4998,-0.4992,-0.4989,-0.4965,-0.4952,-0.4956,-0.4955,-0.4941,-0.4927,-0.4928,-0.4923,-0.4907,-0.4912,-0.4976,-0.4985,-0.4994,-0.5004,-0.4905,-0.4905,-0.4847,-0.4846,-0.4846]}]]